Location: Unspecified
(0.0000°N, 0.0000°E)
Time: 17:46:16
(UTC+00:00)

deb West Ford - Visible Passes

Search period start: 17 May 2025 00:00
Search period end: 27 May 2025 00:00
Orbit: 3292 x 3953 km, 87.7° (Epoch: 10 May)

Date Brightness Start Highest point End Pass type
(mag) Time Alt. Az. Time Alt. Az. Time Alt. Az.
17 May ? 19:59:20 10° SSE 20:19:25 70° E 20:39:49 10° N visible
17 May ? 22:50:34 10° SW 23:03:40 21° W 23:17:19 10° NW visible
18 May ? 18:15:44 10° SE 18:28:21 19° E 18:40:47 10° NE visible
18 May ? 20:52:19 10° S 21:12:20 73° W 21:33:00 10° N visible
19 May ? 19:02:37 10° SSE 19:21:04 42° E 19:39:26 10° NNE visible
19 May ? 21:47:22 10° SSW 22:05:17 41° W 22:23:56 10° NNW visible
20 May ? 19:53:40 10° S 20:13:55 74° E 20:34:27 10° N visible
20 May ? 22:46:10 10° SW 22:58:07 19° W 23:10:32 10° NW visible
21 May ? 18:08:58 10° SE 18:22:49 22° E 18:36:24 10° NE visible
21 May ? 20:46:54 10° S 21:06:51 69° W 21:27:23 10° NNW visible
22 May ? 18:56:40 10° SSE 19:15:34 46° E 19:34:20 10° NNE visible
22 May ? 21:42:17 10° SSW 21:59:47 38° W 22:17:58 10° NNW visible
23 May ? 19:48:04 10° S 20:08:26 79° E 20:29:03 10° N visible
23 May ? 22:42:03 10° SW 22:52:35 16° W 23:03:29 10° WNW visible
24 May ? 18:02:24 10° SE 18:17:17 25° E 18:31:51 10° NE visible
24 May ? 20:41:33 10° S 21:01:22 64° W 21:21:43 10° NNW visible
25 May ? 18:50:48 10° SSE 19:10:04 50° E 19:29:11 10° NNE visible
25 May ? 21:37:16 10° SSW 21:54:17 35° W 22:11:55 10° NW visible
26 May ? 19:42:29 10° S 20:02:58 84° E 20:23:37 10° N visible
26 May ? 22:38:19 10° WSW 22:47:03 14° W 22:56:01 10° WNW visible
